Satellite-Ground Cal/Val Site Overpasses Predictions

Prediction of Satellite NPP Overpassing Cal/Val Site: Antarctic Dome C

Ground Cal/Val Site Location: Latitude: -75.10, Longitude: 123.35; Satellite-Ground Site NADIR distance within 100 km.

Table of predicted overpasses for the next 14.0 days since TLE Epoch: 12/7/2018
Interval Starting Time Ending Time Minimum Distance Time Minimum Distance (km)
1 12/08/2018 14:42:48 12/08/2018 14:43:14 12/08/2018 14:43:01 50.07
2 12/09/2018 07:44:30 12/09/2018 07:44:50 12/09/2018 07:44:40 74.26
3 12/10/2018 07:25:37 12/10/2018 07:26:05 12/10/2018 07:25:51 33.49
4 12/12/2018 15:08:05 12/12/2018 15:08:11 12/12/2018 15:08:08 97.05
5 12/13/2018 14:49:03 12/13/2018 14:49:32 12/13/2018 14:49:17 14.35
6 12/15/2018 07:31:52 12/15/2018 07:32:21 12/15/2018 07:32:07 4.43
7 12/18/2018 14:55:19 12/18/2018 14:55:48 12/18/2018 14:55:34 22.51
8 12/19/2018 14:36:36 12/19/2018 14:36:51 12/19/2018 14:36:44 84.82
9 12/20/2018 07:38:09 12/20/2018 07:38:36 12/20/2018 07:38:23 39.38


NCC Satellite Cal/Val Overpasses Prediction Service
